This is the latest recevied weather packets stored in our database for station/object KD0ISH. If no packets are shown the sender has not sent any weather packets the latest 10 day(s).
| Time | Temp. | Humidity | Pressure | Rain* | Wind** | Luminosity | Snow |
|---|---|---|---|---|---|---|---|
| 1777246058 | 23.89° C | 70% | 1005.3 hPa | 0 mm | - | 0 W/m² | - |
| 1777245756 | 23.89° C | 70% | 1005.6 hPa | 0 mm | - | 0 W/m² | - |
| 1777245453 | 24.44° C | 70% | 1006.2 hPa | 0 mm | - | 0 W/m² | - |
| 1777245148 | 24.44° C | 69% | 1006.3 hPa | 0 mm | - | 1 W/m² | - |
| 1777244845 | 23.89° C | 70% | 1005.9 hPa | 0 mm | - | 3 W/m² | - |
| 1777244540 | 23.89° C | 70% | 1005.7 hPa | 0 mm | - | 4 W/m² | - |
| 1777244236 | 23.89° C | 70% | 1006 hPa | 0 mm | - | 6 W/m² | - |
| 1777243936 | 23.89° C | 71% | 1006.1 hPa | 0 mm | - | 8 W/m² | - |
| 1777243631 | 23.89° C | 71% | 1006.3 hPa | 0 mm | - | 9 W/m² | - |
| 1777243329 | 23.89° C | 71% | 1006.2 hPa | 0 mm | - | 10 W/m² | - |
| 1777243024 | 24.44° C | 71% | 1006.1 hPa | 0 mm | - | 10 W/m² | - |
| 1777242721 | 24.44° C | 70% | 1006 hPa | 0 mm | - | 12 W/m² | - |
| 1777242417 | 24.44° C | 70% | 1006.2 hPa | 0 mm | - | 14 W/m² | - |
| 1777242114 | 24.44° C | 69% | 1006.4 hPa | 0 mm | - | 14 W/m² | - |
| 1777241811 | 24.44° C | 68% | 1006.2 hPa | 0 mm | - | 10 W/m² | - |
| 1777241508 | 25° C | 67% | 1006.3 hPa | 0 mm | - | 12 W/m² | - |
| 1777241206 | 25° C | 67% | 1006.4 hPa | 0 mm | - | 14 W/m² | - |
| 1777240904 | 25° C | 66% | 1006.4 hPa | 0 mm | - | 20 W/m² | - |
| 1777240602 | 25° C | 66% | 1006.3 hPa | 0 mm | - | 31 W/m² | - |
| 1777240299 | 25° C | 65% | 1006.6 hPa | 0 mm | - | 42 W/m² | - |
| 1777239996 | 25° C | 65% | 1006.7 hPa | 0 mm | - | 65 W/m² | - |
| 1777239693 | 25° C | 65% | 1006.7 hPa | 0 mm | - | 75 W/m² | - |
| 1777239389 | 25° C | 65% | 1007.3 hPa | 0 mm | - | 67 W/m² | - |
| 1777239087 | 25.56° C | 65% | 1007.3 hPa | 0 mm | - | 66 W/m² | - |
| 1777238784 | 25.56° C | 64% | 1007.6 hPa | 0 mm | - | 65 W/m² | - |
* Rain latest hour (hover to see other rain measurements)
** Current wind speed in m/s (hover to see current wind gust speed)